GW3250 Weather Reports


time (UTC)temp
F
wind
direction
speed
knots
gust
knots
rain 1hr
in
rain 24hr
in
rain mn
in
humidity
%
barometer
mb
20260508225057 53 37 1.7 2.6 0.00 0.08 0.08 64 1008.8
20260508224555 53 208 0.0 0.0 0.00 0.08 0.08 65 1008.8
20260508224052 53 186 0.9 0.9 0.00 0.08 0.08 64 1008.6
20260508223550 53 164 0.0 0.0 0.00 0.08 0.08 66 1008.6
20260508223047 53 194 1.7 1.7 0.00 0.08 0.08 62 1008.5
20260508222544 53 197 0.9 1.7 0.00 0.08 0.08 63 1008.3
20260508222041 53 185 0.0 0.0 0.00 0.08 0.08 66 1008.2
20260508221537 53 180 0.0 0.0 0.00 0.08 0.08 67 1008.4
20260508221033 53 187 0.0 0.9 0.00 0.08 0.08 67 1008.4
20260508220530 53 175 0.0 0.0 0.00 0.08 0.08 68 1008.3
20260508220026 54 177 0.9 0.9 0.00 0.08 0.08 65 1008.6
20260508215524 54 179 0.0 0.9 0.00 0.08 0.08 63 1008.6
20260508215020 54 216 0.9 1.7 0.00 0.08 0.08 59 1008.3
20260508214518 54 219 0.0 0.0 0.00 0.08 0.08 62 1008.4
20260508214014 54 231 1.7 1.7 0.00 0.08 0.08 60 1008.5
20260508213512 55 237 0.9 1.7 0.00 0.08 0.08 60 1008.4
20260508213007 56 219 0.9 1.7 0.00 0.08 0.08 56 1008.5
20260508212504 55 190 0.9 1.7 0.00 0.08 0.08 56 1008.4
20260508212000 58 238 2.6 3.5 0.00 0.08 0.08 55 1008.4
20260508211455 58 286 0.0 0.9 0.00 0.08 0.08 54 1008.6
20260508210952 56 247 0.9 0.9 0.00 0.08 0.08 59 1008.3
20260508210449 55 217 1.7 1.7 0.00 0.08 0.08 56 1008.3
20260508205945 55 233 2.6 3.5 0.00 0.08 0.08 57 1008.4
20260508205443 55 229 1.7 1.7 0.00 0.08 0.08 57 1008.4
20260508204939 55 164 0.9 1.7 0.00 0.08 0.08 59 1008.5
20260508204437 55 248 1.7 2.6 0.00 0.08 0.08 58 1008.4
20260508203931 55 248 1.7 1.7 0.00 0.08 0.08 55 1008.6
20260508203428 56 229 2.6 5.2 0.00 0.08 0.08 54 1008.4
20260508202924 58 223 6.1 7.0 0.00 0.08 0.08 52 1008.3
20260508202421 58 229 3.5 6.1 0.00 0.08 0.08 52 1008.6
20260508201918 59 235 1.7 2.6 0.00 0.08 0.08 56 1008.5
20260508201415 58 224 3.5 6.1 0.00 0.08 0.08 54 1008.5
20260508200911 57 225 3.5 3.5 0.00 0.08 0.08 55 1008.6
20260508200409 57 258 3.5 3.5 0.00 0.08 0.08 55 1008.6
20260508195904 56 222 0.9 0.9 0.00 0.08 0.08 58 1008.5
20260508195401 55 240 1.7 2.6 0.00 0.08 0.08 63 1008.6
20260508194857 57 217 1.7 2.6 0.00 0.08 0.08 59 1008.7
20260508194354 57 225 2.6 2.6 0.00 0.08 0.08 56 1008.9
20260508193851 56 196 3.5 3.5 0.00 0.08 0.08 60 1008.7
20260508193348 57 230 5.2 6.1 0.00 0.08 0.08 58 1008.9
20260508192844 56 250 1.7 2.6 0.00 0.08 0.08 63 1008.7
20260508192341 54 187 3.5 5.2 0.00 0.08 0.08 62 1008.9
20260508191838 55 233 1.7 2.6 0.00 0.08 0.08 61 1008.8
20260508191336 56 233 6.1 7.0 0.00 0.08 0.08 61 1008.9
20260508190833 55 239 4.3 5.2 0.00 0.08 0.08 65 1008.8
20260508190329 53 258 2.6 3.5 0.00 0.08 0.08 68 1009.1
20260508185826 52 317 1.7 2.6 0.00 0.08 0.08 69 1009.1
20260508185323 53 286 2.6 2.6 0.00 0.08 0.08 69 1009.3
20260508184820 54 269 5.2 7.8 0.00 0.08 0.08 66 1009.5
20260508184318 53 202 5.2 7.0 0.00 0.08 0.08 68 1009.3
20260508183814 53 243 3.5 5.2 0.00 0.08 0.08 71 1009.3
20260508183311 51 189 0.9 1.7 0.00 0.08 0.08 77 1009.4
20260508182806 51 230 2.6 3.5 0.00 0.08 0.08 76 1009.3
20260508182306 51 224 2.6 2.6 0.00 0.08 0.08 77 1009.5
20260508181753 53 230 5.2 6.1 0.00 0.08 0.08 73 1009.3
20260508181250 51 248 1.7 2.6 0.00 0.08 0.08 74 1009.3
20260508180747 50 239 3.5 5.2 0.00 0.08 0.08 76 1009.4
20260508180244 48 213 4.3 5.2 0.00 0.08 0.08 77 1009.4
20260508175741 48 350 1.7 1.7 0.00 0.08 0.08 77 1009.3
20260508175237 49 237 4.3 7.0 0.00 0.08 0.08 71 1009.3
20260508174735 50 241 3.5 3.5 0.00 0.08 0.08 69 1009.1
20260508174232 49 80 2.6 3.5 0.00 0.08 0.08 70 1009.0
20260508173728 50 260 4.3 5.2 0.00 0.08 0.08 68 1009.0
20260508173225 50 265 3.5 3.5 0.00 0.08 0.08 67 1009.1
20260508172722 50 227 0.9 1.7 0.00 0.08 0.08 66 1008.7
20260508172219 50 224 1.7 2.6 0.00 0.08 0.08 64 1008.9
20260508171715 51 239 2.6 2.6 0.00 0.08 0.08 64 1009.0
20260508171211 51 334 2.6 2.6 0.00 0.08 0.08 63 1008.8
20260508170708 51 211 1.7 2.6 0.00 0.08 0.08 63 1008.7
20260508170206 51 227 1.7 2.6 0.00 0.08 0.08 62 1008.6
20260508165703 51 248 2.6 2.6 0.00 0.08 0.08 65 1008.6
20260508165200 52 71 1.7 2.6 0.00 0.08 0.08 65 1008.6
20260508164656 52 239 0.9 1.7 0.00 0.08 0.08 64 1008.8
20260508164153 52 217 1.7 1.7 0.00 0.08 0.08 63 1008.9
20260508163651 52 274 3.5 5.2 0.00 0.08 0.08 61 1008.7
20260508163148 52 244 4.3 5.2 0.00 0.08 0.08 63 1008.6
20260508162643 52 168 0.9 1.7 0.00 0.08 0.08 66 1009.0
20260508162141 52 174 1.7 1.7 0.00 0.08 0.08 63 1009.1
20260508161638 52 100 1.7 2.6 0.00 0.08 0.08 65 1008.7
20260508161135 53 104 0.0 0.9 0.00 0.08 0.08 61 1009.0
20260508160634 53 214 2.6 2.6 0.00 0.08 0.08 64 1008.7
20260508160131 53 221 1.7 2.6 0.00 0.08 0.08 59 1009.1
20260508155628 55 119 3.5 5.2 0.00 0.08 0.08 58 1008.8
20260508155124 54 150 0.9 0.9 0.00 0.08 0.08 63 1009.2
20260508154621 51 242 2.6 3.5 0.00 0.08 0.08 64 1009.1
20260508154118 49 218 2.6 3.5 0.00 0.08 0.08 71 1009.2
20260508153615 49 248 3.5 6.1 0.00 0.08 0.08 64 1009.4
20260508153112 50 112 2.6 3.5 0.00 0.08 0.08 64 1009.1
20260508152609 51 345 0.9 2.6 0.00 0.08 0.08 62 1009.0
20260508152104 53 195 2.6 2.6 0.00 0.08 0.08 63 1009.1
20260508151601 53 226 1.7 1.7 0.00 0.08 0.08 62 1009.0
20260508151058 53 203 0.9 1.7 0.00 0.08 0.08 60 1009.1
20260508150555 52 207 1.7 2.6 0.00 0.08 0.08 68 1009.2
20260508150050 51 213 2.6 3.5 0.00 0.08 0.08 63 1009.2
20260508145542 51 246 2.6 2.6 0.00 0.08 0.08 69 1009.1
20260508145038 51 176 0.9 1.7 0.00 0.08 0.08 67 1009.3
20260508144536 50 218 1.7 1.7 0.00 0.08 0.08 66 1009.3
20260508144033 50 174 1.7 1.7 0.00 0.08 0.08 69 1009.2
20260508143531 48 226 2.6 2.6 0.00 0.08 0.08 75 1009.4
20260508143026 48 183 0.9 0.9 0.00 0.08 0.08 77 1009.3
20260508142518 49 173 2.6 2.6 0.00 0.08 0.08 73 1009.4
20260508142015 51 207 1.7 1.7 0.00 0.08 0.08 70 1009.3
20260508141511 50 25 0.9 0.9 0.00 0.08 0.08 74 1009.4
20260508141009 51 178 1.7 1.7 0.00 0.08 0.08 71 1009.5
20260508140506 49 235 2.6 2.6 0.00 0.08 0.08 75 1009.3
20260508140002 49 198 1.7 1.7 0.00 0.08 0.08 74 1009.3
20260508135458 49 82 0.0 0.9 0.00 0.08 0.08 71 1009.3
20260508134955 50 53 0.9 0.9 0.00 0.08 0.08 74 1009.4
20260508134451 48 195 0.0 0.0 0.00 0.08 0.08 76 1009.7
20260508133948 47 224 0.9 0.9 0.00 0.08 0.08 85 1009.6
20260508133445 46 203 2.6 2.6 0.00 0.08 0.08 84 1009.7
20260508132942 47 210 0.0 0.0 0.00 0.08 0.08 83 1009.6
20260508132440 46 232 1.7 1.7 0.00 0.08 0.08 84 1009.6
20260508131937 46 35 0.9 1.7 0.00 0.08 0.08 86 1009.9
20260508131432 47 213 1.7 2.6 0.00 0.08 0.08 87 1009.9
20260508130929 46 211 1.7 1.7 0.00 0.08 0.08 85 1009.9
20260508130426 46 210 0.0 0.0 0.00 0.08 0.08 91 1010.1
20260508125922 46 159 0.9 0.9 0.00 0.08 0.08 90 1009.9
20260508125418 45 199 0.0 0.9 0.00 0.08 0.08 95 1009.8
20260508124916 43 263 1.7 1.7 0.00 0.08 0.08 96 1009.7
20260508124413 43 181 0.9 0.9 0.00 0.08 0.08 97 1009.7
20260508123911 42 138 0.0 0.9 0.00 0.08 0.08 98 1009.9
20260508123410 42 178 0.9 0.9 0.00 0.08 0.08 99 1009.9
20260508122905 42 189 0.9 0.9 0.00 0.08 0.08 99 1009.8
20260508122403 41 173 1.7 1.7 0.00 0.08 0.08 99 1009.8
20260508121900 41 173 1.7 1.7 0.00 0.08 0.08 99 1009.5
20260508121358 41 172 0.9 1.7 0.00 0.08 0.08 99 1009.6
20260508120855 41 153 0.0 0.0 0.00 0.08 0.08 99 1009.6
20260508120353 40 151 0.9 0.9 0.00 0.08 0.08 99 1009.9
20260508115850 40 160 0.9 0.9 0.00 0.08 0.08 99 1009.8
20260508115348 39 154 0.0 0.9 0.00 0.08 0.08 99 1009.7
20260508114844 39 158 0.0 0.0 0.00 0.08 0.08 99 1009.9
20260508114341 39 159 0.0 0.0 0.00 0.08 0.08 99 1009.9
20260508113838 38 126 0.9 0.9 0.00 0.08 0.08 99 1009.6
20260508113336 38 329 0.9 0.9 0.00 0.08 0.08 99 1009.8
20260508112832 38 186 0.0 0.9 0.00 0.08 0.08 99 1009.9
20260508112329 38 186 0.9 0.9 0.00 0.08 0.08 99 1009.9
20260508111826 38 186 1.7 1.7 0.00 0.08 0.08 99 1009.8
20260508111323 38 186 0.0 0.9 0.00 0.08 0.08 99 1009.7
20260508110820 38 186 0.0 0.0 0.00 0.08 0.08 99 1009.4
20260508110318 37 186 0.9 1.7 0.00 0.08 0.08 99 1009.6
20260508105817 37 186 0.9 0.9 0.00 0.08 0.08 99 1009.5
20260508105314 37 186 0.0 0.9 0.00 0.08 0.08 99 1009.7
20260508104811 37 186 0.0 0.0 0.00 0.08 0.08 99 1009.5
20260508104308 38 186 0.0 0.0 0.00 0.08 0.08 99 1009.4
20260508103805 38 186 0.0 0.0 0.00 0.08 0.08 99 1009.2
20260508103302 37 186 0.0 0.0 0.00 0.08 0.08 99 1009.5
20260508102800 37 186 0.9 0.9 0.00 0.08 0.08 99 1009.3
20260508102258 37 186 0.0 0.9 0.07 0.08 0.08 99 1009.4
20260508101755 37 186 0.0 0.9 0.07 0.08 0.08 99 1009.2
20260508101252 37 186 0.9 0.9 0.00 0.07 0.07 99 1009.4
20260508100749 37 186 0.0 0.9 0.00 0.07 0.07 99 1009.3
20260508100248 37 185 0.0 0.0 0.00 0.07 0.07 99 1009.1
20260508095743 37 185 0.0 0.0 0.00 0.07 0.07 99 1009.3
20260508095241 37 185 0.0 0.0 0.00 0.07 0.07 99 1009.2
20260508094737 37 185 0.9 0.9 0.00 0.07 0.07 99 1009.1
20260508094235 37 185 0.9 0.9 0.00 0.07 0.07 99 1009.1
20260508093732 36 185 0.9 1.7 0.00 0.07 0.07 99 1009.0
20260508093229 36 185 0.0 0.0 0.00 0.07 0.07 99 1008.7
20260508092726 36 185 0.0 0.0 0.00 0.07 0.07 99 1008.8
20260508092224 36 185 0.0 0.0 0.00 0.07 0.07 99 1009.0
20260508091722 36 185 0.0 0.0 0.00 0.07 0.07 99 1008.7
20260508091219 37 185 0.0 0.0 0.00 0.07 0.07 99 1008.6
20260508090717 37 185 0.0 0.0 0.00 0.07 0.07 99 1008.7
20260508090214 38 185 0.0 0.0 0.00 0.07 0.07 99 1008.7
20260508085710 38 185 0.0 0.9 0.00 0.07 0.07 99 1009.0
20260508085207 38 185 0.0 0.0 0.00 0.07 0.07 99 1009.0
20260508084703 38 185 0.0 0.9 0.00 0.07 0.07 99 1009.0
20260508084201 38 185 0.0 0.9 0.00 0.07 0.07 99 1008.9
20260508083658 37 185 0.0 0.0 0.00 0.07 0.07 99 1008.8
20260508083155 37 185 0.0 0.0 0.00 0.07 0.07 99 1008.6
20260508082650 37 185 0.0 0.0 0.00 0.07 0.07 99 1008.7
20260508082148 37 185 0.0 0.0 0.00 0.07 0.07 99 1008.7
20260508081645 37 185 0.9 0.9 0.00 0.07 0.07 99 1008.5
20260508081141 38 185 0.0 0.9 0.00 0.07 0.07 99 1008.6
20260508080638 38 185 0.0 0.0 0.00 0.07 0.07 99 1008.5
20260508080136 38 185 0.0 0.0 0.00 0.07 0.07 99 1008.7
20260508075627 38 186 0.0 0.0 0.00 0.07 0.07 99 1008.5
20260508075124 38 186 0.0 0.0 0.00 0.07 0.07 99 1008.6
20260508074622 38 185 0.0 0.0 0.00 0.07 0.07 99 1008.6
20260508074119 38 185 0.0 0.0 0.00 0.07 0.07 99 1008.4
20260508073616 39 185 0.0 0.0 0.00 0.07 0.07 99 1008.4
20260508073114 39 186 0.0 0.0 0.00 0.07 0.07 99 1008.5
20260508072609 39 185 0.0 0.0 0.00 0.07 0.07 99 1008.3
20260508072106 40 186 0.0 0.0 0.00 0.07 0.07 99 1008.4
20260508071604 40 186 0.0 0.0 0.00 0.07 0.07 99 1008.6
20260508071103 41 186 0.0 0.0 0.00 0.07 0.07 99 1008.5
20260508070559 41 186 0.0 0.0 0.00 0.07 0.07 99 1008.4
20260508070058 41 186 0.0 0.9 0.00 0.07 0.07 99 1008.7
20260508065555 41 186 0.9 0.9 0.00 0.07 0.07 99 1008.2
20260508065053 41 186 0.9 0.9 0.00 0.07 0.07 99 1008.3
20260508064550 41 185 0.0 0.0 0.00 0.07 0.07 99 1008.3
20260508064048 41 185 0.9 0.9 0.00 0.07 0.07 99 1008.6
20260508063545 41 185 0.9 0.9 0.00 0.07 0.07 99 1008.4
20260508063043 41 177 0.9 0.9 0.00 0.07 0.07 99 1008.4
20260508062540 41 177 0.0 0.0 0.00 0.07 0.07 99 1008.6
20260508062037 41 177 0.0 0.0 0.00 0.07 0.07 99 1008.9
20260508061535 41 178 0.9 0.9 0.07 0.07 0.07 99 1008.9
20260508061031 41 170 0.9 0.9 0.07 0.07 0.07 99 1009.0
20260508060528 41 171 0.9 0.9 0.00 0.06 0.06 99 1008.9
20260508060026 41 170 0.0 0.0 0.00 0.06 0.06 98 1009.0
20260508055521 41 170 0.0 0.9 0.00 0.06 0.06 98 1008.8
20260508055018 41 170 0.0 0.9 0.00 0.06 0.06 98 1008.8
20260508054515 41 170 0.0 0.0 0.00 0.06 0.06 97 1008.6
20260508054012 41 170 0.0 0.0 0.00 0.06 0.06 97 1009.0
20260508053509 41 170 0.0 0.0 0.00 0.06 0.06 96 1008.9
20260508053007 41 170 0.0 0.0 0.00 0.06 0.06 96 1009.1
20260508052504 41 170 0.0 0.0 0.00 0.06 0.06 95 1009.1
20260508052000 41 170 0.0 0.0 0.00 0.06 0.06 95 1009.2
20260508051456 41 170 0.0 0.0 0.12 0.06 0.06 94 1009.3
20260508050952 42 172 1.7 1.7 0.24 0.06 0.06 93 1009.4
20260508050449 42 169 0.9 0.9 0.17 0.04 0.04 93 1009.5
20260508045945 43 167 0.9 0.9 0.19 0.03 0.03 91 1009.0
20260508045442 44 168 0.9 2.6 0.07 0.01 0.01 88 1009.4
20260508044940 44 231 1.7 2.6 0.00 0.00 0.00 85 1009.1
20260508044437 45 284 2.6 3.5 0.00 0.00 0.00 83 1008.8
20260508043932 45 201 0.9 0.9 0.00 0.00 0.00 78 1008.2
20260508043430 44 200 0.0 0.9 0.00 0.00 0.00 77 1007.8
20260508042926 45 200 0.0 0.0 0.00 0.00 0.00 78 1007.6
20260508042424 45 200 0.0 0.9 0.00 0.00 0.00 78 1007.4
20260508041920 45 200 0.9 0.9 0.00 0.00 0.00 79 1007.3
20260508041417 45 200 0.0 0.9 0.00 0.00 0.00 79 1007.3
20260508040913 45 200 0.0 0.9 0.00 0.00 0.00 79 1006.8
20260508040410 45 200 0.0 0.0 0.00 0.00 0.00 80 1006.8
20260508035908 45 200 0.0 0.0 0.00 0.01 0.01 78 1006.9
20260508035400 45 201 0.0 0.0 0.00 0.01 0.01 78 1007.0
20260508034856 45 201 0.9 0.9 0.00 0.01 0.01 80 1007.2
20260508034353 45 201 0.0 0.9 0.00 0.01 0.01 78 1006.9
20260508033850 45 201 0.9 0.9 0.00 0.01 0.01 77 1006.9
20260508033349 46 201 0.9 0.9 0.00 0.01 0.01 72 1006.9
20260508032846 47 201 0.9 0.9 0.00 0.01 0.01 71 1006.9
20260508032343 47 89 0.9 1.7 0.00 0.01 0.01 65 1006.9
20260508031840 47 88 0.0 0.0 0.00 0.01 0.01 65 1006.8
20260508031337 46 124 0.0 0.0 0.00 0.01 0.01 66 1006.8
20260508030833 46 124 0.0 0.0 0.00 0.01 0.01 69 1006.9
20260508030330 46 124 0.0 0.0 0.00 0.01 0.01 71 1007.0
20260508025827 47 124 0.9 0.9 0.00 0.01 0.01 69 1007.0
20260508025324 48 124 0.0 0.0 0.00 0.01 0.01 65 1007.0
20260508024821 47 127 0.0 0.9 0.00 0.01 0.01 64 1007.3
20260508024317 47 127 0.0 0.0 0.00 0.01 0.01 64 1007.2
20260508023814 47 54 0.0 0.0 0.00 0.01 0.01 62 1007.2
20260508023311 47 162 0.0 0.0 0.00 0.01 0.01 64 1007.2
20260508022807 47 162 0.0 0.0 0.00 0.01 0.01 62 1007.0
20260508022306 47 162 0.0 0.0 0.00 0.01 0.01 62 1007.2
20260508021801 47 162 0.0 0.0 0.00 0.01 0.01 63 1006.9
20260508021256 47 162 0.0 0.0 0.00 0.01 0.01 64 1007.2
20260508020753 47 162 0.9 0.9 0.00 0.01 0.01 61 1007.4
20260508020251 46 162 0.0 0.9 0.00 0.01 0.01 63 1007.0
20260508015747 46 163 0.0 0.0 0.00 0.01 0.01 64 1007.2
20260508015245 47 163 0.0 0.0 0.00 0.01 0.01 63 1007.3
20260508014741 47 162 0.0 0.0 0.00 0.01 0.01 63 1007.0
20260508014238 47 162 0.0 0.0 0.00 0.01 0.01 61 1007.2
20260508013734 47 162 0.0 0.0 0.00 0.01 0.01 61 1006.9
20260508013231 47 162 0.0 0.0 0.00 0.01 0.01 62 1007.2
20260508012728 47 162 0.0 0.0 0.00 0.01 0.01 62 1007.3
20260508012225 47 162 0.0 0.0 0.00 0.01 0.01 62 1007.2
20260508011723 47 162 0.0 0.0 0.00 0.01 0.01 62 1007.2
20260508011220 47 162 0.0 0.0 0.00 0.01 0.01 60 1007.0
20260508010717 48 162 0.0 0.0 0.00 0.01 0.01 61 1006.9
20260508010215 48 162 0.0 0.0 0.00 0.01 0.01 59 1006.9
20260508005712 48 162 0.0 0.0 0.00 0.01 0.01 59 1006.9
20260508005208 48 162 0.0 0.9 0.00 0.01 0.01 60 1006.8
20260508004704 48 162 0.0 0.9 0.00 0.01 0.01 58 1006.5
20260508004200 48 162 0.0 0.9 0.00 0.01 0.01 59 1006.4
20260508003657 48 162 0.0 0.0 0.00 0.01 0.01 58 1006.4
20260508003155 48 162 0.9 0.9 0.00 0.01 0.01 60 1006.5
20260508002651 48 162 0.9 0.9 0.00 0.01 0.01 59 1006.4
20260508002149 49 162 0.0 0.9 0.00 0.01 0.01 56 1006.2
20260508001644 49 162 0.0 0.0 0.00 0.01 0.01 56 1006.4
20260508001140 49 162 0.0 0.0 0.00 0.01 0.01 56 1006.3
20260508000636 49 162 0.0 0.0 0.00 0.01 0.01 55 1006.4
20260508000134 49 162 0.0 0.0 0.00 0.01 0.01 57 1006.3
20260507235630 50 162 0.0 0.0 0.00 0.01 0.01 57 1006.1
20260507235128 51 162 0.0 0.0 0.00 0.01 0.01 53 1006.0
20260507234624 51 162 0.9 0.9 0.00 0.01 0.01 53 1006.1
20260507234121 51 162 0.0 0.0 0.00 0.01 0.01 53 1006.1
20260507233618 52 162 0.0 0.0 0.00 0.01 0.01 52 1005.8
20260507233116 52 189 0.0 0.9 0.00 0.01 0.01 52 1006.0
20260507232613 52 189 0.0 0.0 0.00 0.01 0.01 51 1006.2
20260507232110 53 189 0.0 0.9 0.00 0.01 0.01 49 1006.0
20260507231606 53 188 0.0 0.9 0.00 0.01 0.01 48 1006.0
20260507231103 53 202 0.0 0.0 0.00 0.01 0.01 49 1006.0
20260507230559 53 203 0.0 0.0 0.00 0.01 0.01 49 1006.0
20260507230056 53 203 0.9 0.9 0.00 0.01 0.01 55 1006.0
20260507225551 53 169 0.0 0.9 0.00 0.01 0.01 48 1006.0